| time (UTC) | temp C | wind direction | speed KPH | gust KPH | rain 1hr cm | rain 24hr cm | rain mn cm | humidity % | barometer mb |
| 20260510104547 | 10 | 280 | 0.0 | 0.0 | 0.00 | 0.66 | 0.00 | 1 | 1011.8 |
| 20260510103043 | 10 | 279 | 0.0 | 0.0 | 0.00 | 0.66 | 0.00 | 1 | 1011.6 |
| 20260510101535 | 10 | 280 | 0.0 | 0.0 | 0.00 | 0.66 | 0.00 | 1 | 1011.3 |
| 20260510100042 | 10 | 280 | 0.0 | 0.0 | 0.00 | 0.66 | 0.00 | 1 | 1011.1 |
| 20260510094535 | 10 | 280 | 0.0 | 0.0 | 0.00 | 0.66 | 0.00 | 1 | 1011.2 |
| 20260510093022 | 10 | 280 | 0.0 | 0.0 | 0.00 | 0.66 | 0.00 | 1 | 1011.1 |
| 20260510091517 | 10 | 281 | 0.0 | 0.0 | 0.00 | 0.66 | 0.00 | 1 | 1010.8 |
| 20260510090013 | 10 | 281 | 0.0 | 0.0 | 0.00 | 0.66 | 0.00 | 1 | 1010.9 |
| 20260510084509 | 10 | 281 | 0.0 | 0.0 | 0.00 | 0.66 | 0.00 | 1 | 1011.2 |
| 20260510083004 | 10 | 281 | 0.0 | 0.0 | 0.00 | 0.66 | 0.00 | 1 | 1011.0 |
| 20260510081607 | 10 | 282 | 0.0 | 1.6 | 0.00 | 0.66 | 0.00 | 1 | 1011.4 |
| 20260510074553 | 10 | 198 | 0.0 | 0.0 | 0.00 | 0.66 | 0.00 | 1 | 1010.4 |
| 20260510073051 | 10 | 197 | 0.0 | 0.0 | 0.00 | 0.66 | 0.00 | 1 | 1010.5 |
| 20260510071545 | 10 | 197 | 0.0 | 0.0 | 0.00 | 0.66 | 0.00 | 1 | 1010.5 |
| 20260510070046 | 10 | 197 | 0.0 | 0.0 | 0.00 | 0.66 | 0.00 | 1 | 1010.5 |
| 20260510064537 | 9 | 250 | 0.0 | 0.0 | 0.00 | 0.66 | 0.00 | 1 | 1010.5 |
| 20260510063035 | 9 | 250 | 0.0 | 0.0 | 0.00 | 0.66 | 0.00 | 1 | 1010.3 |
| 20260510061524 | 9 | 250 | 0.0 | 0.0 | 0.00 | 0.66 | 0.00 | 1 | 1010.0 |
| 20260510060033 | 9 | 250 | 0.0 | 0.0 | 0.00 | 0.66 | 0.00 | 1 | 1010.1 |
| 20260510054518 | 9 | 250 | 0.0 | 0.0 | 0.00 | 0.66 | 0.00 | 1 | 1010.2 |
| 20260510053011 | 10 | 250 | 0.0 | 0.0 | 0.00 | 0.66 | 0.00 | 1 | 1010.3 |
| 20260510051508 | 10 | 250 | 0.0 | 0.0 | 0.00 | 0.66 | 0.00 | 1 | 1010.4 |
| 20260510050003 | 9 | 250 | 0.0 | 0.0 | 0.00 | 0.66 | 0.00 | 1 | 1010.4 |
| 20260510044558 | 9 | 250 | 0.0 | 0.0 | 0.00 | 0.66 | 0.00 | 1 | 1010.5 |
| 20260510043054 | 9 | 250 | 0.0 | 0.0 | 0.00 | 0.66 | 0.00 | 1 | 1010.6 |
| 20260510041551 | 9 | 250 | 0.0 | 0.0 | 0.00 | 0.66 | 0.00 | 1 | 1010.6 |
| 20260510040046 | 9 | 250 | 0.0 | 0.0 | 0.00 | 0.66 | 0.00 | 1 | 1010.7 |
| 20260510034540 | 9 | 250 | 0.0 | 0.0 | 0.00 | 0.66 | 0.66 | 1 | 1010.6 |
| 20260510033046 | 9 | 250 | 0.0 | 0.0 | 0.00 | 0.66 | 0.66 | 1 | 1010.6 |
| 20260510031532 | 9 | 250 | 0.0 | 0.0 | 0.00 | 0.66 | 0.66 | 1 | 1010.5 |
| 20260510030027 | 10 | 250 | 0.0 | 0.0 | 0.00 | 0.66 | 0.66 | 1 | 1010.2 |
| 20260510024523 | 10 | 250 | 0.0 | 0.0 | 0.00 | 0.66 | 0.66 | 1 | 1010.2 |
| 20260510023018 | 10 | 250 | 0.0 | 0.0 | 0.00 | 0.66 | 0.66 | 1 | 1010.2 |
| 20260510021531 | 10 | 250 | 0.0 | 0.0 | 0.00 | 0.66 | 0.66 | 1 | 1010.1 |
| 20260510020010 | 10 | 250 | 0.0 | 0.0 | 0.00 | 0.66 | 0.66 | 1 | 1010.1 |
| 20260510014510 | 11 | 250 | 0.0 | 0.0 | 0.00 | 0.66 | 0.66 | 1 | 1009.9 |
| 20260510013123 | 11 | 250 | 0.0 | 0.0 | 0.00 | 0.66 | 0.66 | 1 | 1010.0 |
| 20260510011556 | 11 | 250 | 0.0 | 0.0 | 0.00 | 0.66 | 0.66 | 1 | 1009.9 |
| 20260510010058 | 11 | 250 | 0.0 | 0.0 | 0.00 | 0.66 | 0.66 | 1 | 1009.7 |
| 20260510004544 | 11 | 250 | 0.0 | 0.0 | 0.00 | 0.66 | 0.66 | 1 | 1009.4 |
| 20260510003041 | 12 | 250 | 0.0 | 0.0 | 0.00 | 0.66 | 0.66 | 1 | 1009.4 |
| 20260510001536 | 12 | 250 | 0.0 | 0.0 | 0.00 | 0.66 | 0.66 | 1 | 1009.4 |
| 20260510000032 | 13 | 250 | 0.0 | 0.0 | 0.00 | 0.66 | 0.66 | 1 | 1009.3 |
| 20260509234527 | 13 | 250 | 0.0 | 0.0 | 0.00 | 0.66 | 0.66 | 1 | 1009.3 |
| 20260509233031 | 13 | 250 | 0.0 | 0.0 | 0.00 | 0.66 | 0.66 | 1 | 1009.4 |
| 20260509231519 | 13 | 250 | 0.0 | 0.0 | 0.00 | 0.66 | 0.66 | 1 | 1009.4 |
| 20260509230023 | 14 | 250 | 0.0 | 0.0 | 0.00 | 0.66 | 0.66 | 1 | 1009.3 |
| 20260509224509 | 15 | 250 | 0.0 | 0.0 | 0.00 | 0.66 | 0.66 | 1 | 1009.3 |
| 20260509223006 | 15 | 255 | 0.0 | 0.0 | 0.00 | 0.66 | 0.66 | 1 | 1009.3 |
| 20260509221502 | 15 | 256 | 0.0 | 0.0 | 0.00 | 0.66 | 0.66 | 1 | 1009.3 |
| 20260509220058 | 15 | 256 | 0.0 | 0.0 | 0.00 | 0.66 | 0.66 | 1 | 1009.1 |
| 20260509214552 | 15 | 255 | 0.0 | 0.0 | 0.00 | 0.66 | 0.66 | 1 | 1009.1 |
| 20260509213103 | 15 | 257 | 0.0 | 0.0 | 0.00 | 0.66 | 0.66 | 1 | 1009.3 |
| 20260509211543 | 14 | 257 | 0.0 | 0.0 | 0.00 | 0.66 | 0.66 | 1 | 1009.4 |
| 20260509210045 | 15 | 257 | 0.0 | 0.0 | 0.10 | 0.66 | 0.66 | 1 | 1009.4 |
| 20260509204534 | 15 | 248 | 0.0 | 0.0 | 0.10 | 0.66 | 0.66 | 1 | 1009.4 |
| 20260509203032 | 14 | 242 | 0.0 | 0.0 | 0.13 | 0.66 | 0.66 | 1 | 1009.5 |
| 20260509201526 | 13 | 243 | 0.0 | 0.0 | 0.15 | 0.66 | 0.66 | 1 | 1009.4 |
| 20260509200022 | 14 | 231 | 0.0 | 1.6 | 0.08 | 0.56 | 0.56 | 1 | 1009.6 |
| 20260509194527 | 14 | 231 | 0.0 | 0.0 | 0.13 | 0.56 | 0.56 | 1 | 1009.8 |
| 20260509193021 | 13 | 231 | 0.0 | 0.0 | 0.10 | 0.53 | 0.53 | 1 | 1010.0 |
| 20260509191508 | 13 | 231 | 0.0 | 1.6 | 0.10 | 0.51 | 0.51 | 1 | 1010.2 |
| 20260509190006 | 13 | 269 | 0.0 | 3.2 | 0.13 | 0.46 | 0.46 | 1 | 1010.5 |
| 20260509184610 | 14 | 245 | 0.0 | 0.0 | 0.15 | 0.43 | 0.43 | 1 | 1010.7 |
| 20260509183059 | 13 | 135 | 0.0 | 0.0 | 0.18 | 0.43 | 0.43 | 1 | 1010.8 |
| 20260509181554 | 13 | 135 | 0.0 | 0.0 | 0.25 | 0.41 | 0.41 | 1 | 1010.9 |
| 20260509180056 | 13 | 129 | 0.0 | 0.0 | 0.18 | 0.33 | 0.33 | 1 | 1011.1 |
| 20260509174546 | 13 | 226 | 0.0 | 0.0 | 0.15 | 0.28 | 0.28 | 1 | 1011.1 |
| 20260509173052 | 13 | 232 | 0.0 | 0.0 | 0.13 | 0.23 | 0.23 | 1 | 1010.9 |
| 20260509171538 | 14 | 225 | 0.0 | 0.0 | 0.10 | 0.15 | 0.15 | 1 | 1010.7 |
| 20260509170029 | 14 | 225 | 0.0 | 0.0 | 0.13 | 0.13 | 0.13 | 1 | 1010.6 |
| 20260509164524 | 14 | 225 | 0.0 | 0.0 | 0.13 | 0.13 | 0.13 | 4 | 1010.8 |
| 20260509163019 | 13 | 225 | 0.0 | 1.6 | 0.10 | 0.10 | 0.10 | 25 | 1010.9 |
| 20260509161516 | 14 | 203 | 0.0 | 3.2 | 0.05 | 0.05 | 0.05 | 38 | 1011.1 |
| 20260509160011 | 15 | 71 | 0.0 | 1.6 | 0.00 | 0.00 | 0.00 | 45 | 1011.4 |
| 20260509154506 | 16 | 259 | 0.0 | 6.4 | 0.00 | 0.00 | 0.00 | 51 | 1011.3 |
| 20260509153003 | 16 | 117 | 0.0 | 6.4 | 0.00 | 0.00 | 0.00 | 55 | 1011.7 |
| 20260509151557 | 16 | 135 | 1.6 | 6.4 | 0.00 | 0.00 | 0.00 | 55 | 1011.2 |
| 20260509150052 | 16 | 264 | 0.0 | 3.2 | 0.00 | 0.00 | 0.00 | 54 | 1011.3 |
| 20260509144550 | 16 | 252 | 1.6 | 8.0 | 0.00 | 0.00 | 0.00 | 54 | 1011.3 |
| 20260509143043 | 16 | 267 | 0.0 | 3.2 | 0.00 | 0.00 | 0.00 | 53 | 1011.0 |
| 20260509141542 | 15 | 49 | 0.0 | 6.4 | 0.00 | 0.00 | 0.00 | 52 | 1011.0 |
| 20260509140045 | 15 | 105 | 0.0 | 4.8 | 0.00 | 0.00 | 0.00 | 49 | 1011.0 |
| 20260509134530 | 15 | 352 | 0.0 | 6.4 | 0.00 | 0.00 | 0.00 | 45 | 1010.8 |
| 20260509133026 | 15 | 253 | 0.0 | 0.0 | 0.00 | 0.00 | 0.00 | 42 | 1010.9 |
| 20260509131523 | 15 | 304 | 0.0 | 0.0 | 0.00 | 0.00 | 0.00 | 39 | 1010.9 |
| 20260509130016 | 14 | 269 | 0.0 | 3.2 | 0.00 | 0.00 | 0.00 | 34 | 1011.0 |
| 20260509124511 | 13 | 284 | 0.0 | 1.6 | 0.00 | 0.00 | 0.00 | 24 | 1011.0 |
| 20260509123009 | 12 | 193 | 0.0 | 1.6 | 0.00 | 0.00 | 0.00 | 10 | 1011.1 |
| 20260509121507 | 12 | 349 | 0.0 | 0.0 | 0.00 | 0.00 | 0.00 | 2 | 1011.1 |
| 20260509120002 | 11 | 352 | 0.0 | 0.0 | 0.00 | 0.00 | 0.00 | 11 | 1011.1 |
| 20260509114600 | 11 | 351 | 0.0 | 0.0 | 0.00 | 0.00 | 0.00 | 16 | 1011.0 |
| 20260509113058 | 11 | 352 | 0.0 | 0.0 | 0.00 | 0.00 | 0.00 | 24 | 1011.0 |
| 20260509111559 | 11 | 351 | 0.0 | 0.0 | 0.00 | 0.00 | 0.00 | 26 | 1010.9 |
| 20260509110055 | 11 | 352 | 0.0 | 0.0 | 0.00 | 0.00 | 0.00 | 30 | 1010.9 |